SL-16 DEB, 23707

Orbit data source: Space-Track

SL-16 DEB, 23707 is space debris in LEO originally from a launch on Tue, 31 Oct 1995 UTC launched from the Tyuratam Missile And Space Complex (TTMTR). Debris objects in space refer to the collection of defunct objects orbiting the Earth. Examples of debris include non-operational satellites, rocket bodies, and fragments generated from explosions, collisions, or faulty payload assembly.

Loading next visibility...
Identifier
23707, 1995-058D
Orbit
LEO
Country
Flag of CISCIS
Related business
Manufacturer
Yuzhnoe
Mission
Spacecraft
Bus & Motor
SEP MOTOR COVER, Unknown motor
Mass
~0 kg wet, ~1 kg dry
Launch date (UTC)
1995-10-31 (30 years ago)
Launch vehicle
Unknown
Launch site
Tyuratam Missile And Space Complex (TTMTR)
Object type
Payload
Rocket body
Debris
Shape & HBR
Unknown
Radar Cross Section
Small (<0.1 m²)

Expand to show TLE details & history
Last TLE update: 17 hours ago

TLE from 17 hours ago
0 SL-16 DEB
1 23707U 95058D   25260.59311021  .00000084  00000-0  11835-3 0  9996
2 23707  70.9948 307.1527 0203769 145.7413 337.0611 13.72446774495964
Epoch: 2025-09-17T14:14Z
TLE epoch observation values (Epoch: 2025-09-17T14:14:04.722Z)
Latitude
53.52494°
Longitude
-110.74226°
Altitude
861.194 km
Speed
7.496 km/s
True Right ascension
06h 38m 10s
True Declination
53° 21' 46"
Sunlit
Object was in daylight at epoch
Visualization orbit readout
Latitude
Unknown
Longitude
Unknown
Altitude
Unknown
Speed
Unknown
Apparent Right ascension
Unknown
Apparent Declination
Unknown
Sunlit
N/A
Visualization observer readout
Local Sidereal Time
00:21:22
Azimuth
Unknown
Elevation
Unknown
Doppler factor
Unknown
Orbital elements
Apogee altitude
1,138.881 km
Perigee altitude
838.651 km
Semi-major axis
7,366.903 km
Eccentricity
0.02038
Inclination
70.9948°
RAAN
307.1527°
Arg. of periapsis
145.7413°
True anomaly
336.12923°
Mean anomaly
337.0611°
Eccentric anomaly
336.59738°
Mean motion
3.43254 °/min
Orbital period
104.88 mins
BSTAR
0.00011835
Loading maneuver chart data...
Computing Atmospheric mass density...
Loading historical data...
Loading historical data...
Loading historical data...
Loading historical data...
Loading historical data...
Loading historical data...
Loading historical data...

Documentation

Showing up to 5 results
|